Location: Dattensoll
(49.9928°N, 9.8954°E)
Time: 10:34:19
(UTC+00:00)

Cosmos 1420 Rocket - Pass Details

Date: 19 May 2025
Orbit: 750 x 777 km, 74.0° (Epoch: 23 June)

Event Time Altitude Azimuth Distance (km) Brightness Sun altitude
Rises 23:34:15 0° 333° (NNW) 3,270 8.2 -19.9°
Reaches altitude 10° 23:36:41 10° 329° (NNW) 2,338 7.3 -19.9°
Maximum altitude 23:41:52 56° 253° (WSW) 925 4.2 -19.8°
Enters shadow 23:43:29 40° 199° (SSW) 1,141 4.4 -19.8°
